TimeEET,TemperatureF,Dew PointF,Humidity,Sea Level PressureIn,VisibilityMPH,Wind Direction,Wind SpeedMPH,Gust SpeedMPH,PrecipitationIn,Events,Conditions,WindDirDegrees,DateUTC
12:00 AM,69.8,57.2,64,29.92,-9999.0,SSE,2.3,-,N/A,,Clear,160,2013-11-12 22:00:00
1:00 AM,68.0,55.4,64,29.92,-9999.0,SE,2.3,-,N/A,,Clear,140,2013-11-12 23:00:00
2:00 AM,67,57,62,29.90,6,Calm,Calm,,,,,,2013-11-13 00:00:00
2:00 AM,68.0,57.2,68,29.89,-9999.0,Calm,Calm,-,N/A,,Clear,0,2013-11-13 00:00:00
3:00 AM,66.2,55.4,68,29.89,-9999.0,Calm,Calm,-,N/A,,Clear,0,2013-11-13 01:00:00
4:00 AM,62.6,53.6,72,29.89,-9999.0,SSE,2.3,-,N/A,,Clear,160,2013-11-13 02:00:00
5:00 AM,62,51,59,29.91,6,ENE,2.3,,,,,70,2013-11-13 03:00:00
5:00 AM,62.6,51.8,68,29.92,-9999.0,ENE,2.3,-,N/A,,Clear,70,2013-11-13 03:00:00
6:00 AM,60.8,51.8,72,29.92,-9999.0,Calm,Calm,-,N/A,,Clear,0,2013-11-13 04:00:00
7:00 AM,60.8,51.8,72,29.95,-9999.0,Calm,Calm,-,N/A,,Clear,0,2013-11-13 05:00:00
8:00 AM,67,54,52,29.96,6,Calm,Calm,,,,,,2013-11-13 06:00:00
8:00 AM,62.6,53.6,72,29.95,-9999.0,Calm,Calm,-,N/A,,Clear,0,2013-11-13 06:00:00
9:00 AM,73.4,57.2,57,29.98,4.3,Calm,Calm,-,N/A,,Unknown,0,2013-11-13 07:00:00
10:00 AM,75.2,57.2,53,29.95,4.3,ENE,2.3,-,N/A,,Unknown,60,2013-11-13 08:00:00
11:00 AM,80,59,39,29.94,6,North,2.3,,,,,350,2013-11-13 09:00:00
11:00 AM,80.6,59.0,48,29.95,-9999.0,North,2.3,-,N/A,,Clear,350,2013-11-13 09:00:00
12:00 PM,82.4,60.8,48,29.92,-9999.0,Calm,Calm,-,N/A,,Clear,0,2013-11-13 10:00:00
1:00 PM,84.2,59.0,42,29.89,-9999.0,WNW,3.5,-,N/A,,Clear,290,2013-11-13 11:00:00
2:00 PM,86,54,23,29.87,6,Calm,Calm,,,,,,2013-11-13 12:00:00
2:00 PM,86.0,53.6,33,29.86,-9999.0,Calm,Calm,-,N/A,,Unknown,0,2013-11-13 12:00:00
3:00 PM,87.8,55.4,33,29.86,-9999.0,Calm,Calm,-,N/A,,Clear,0,2013-11-13 13:00:00
4:00 PM,86.0,55.4,35,29.86,-9999.0,West,2.3,-,N/A,,Clear,280,2013-11-13 14:00:00
5:00 PM,82,56,30,29.87,6,Calm,Calm,,,,,,2013-11-13 15:00:00
5:00 PM,82.4,55.4,39,29.86,-9999.0,Calm,Calm,-,N/A,,Clear,0,2013-11-13 15:00:00
6:00 PM,77.0,55.4,47,29.89,-9999.0,Calm,Calm,-,N/A,,Clear,0,2013-11-13 16:00:00
7:00 PM,75.2,55.4,50,29.89,3.7,Calm,Calm,-,N/A,,Unknown,0,2013-11-13 17:00:00
8:00 PM,71,56,48,29.91,4,Calm,Calm,,,,Haze,,2013-11-13 18:00:00
8:00 PM,71.6,55.4,57,29.89,3.7,Calm,Calm,-,N/A,,Unknown,0,2013-11-13 18:00:00
9:00 PM,71.6,50.0,46,29.92,3.7,South,2.3,-,N/A,,Unknown,170,2013-11-13 19:00:00
10:00 PM,69.8,50.0,49,29.92,3.7,SSE,4.6,-,N/A,,Unknown,160,2013-11-13 20:00:00
11:00 PM,69,49,38,29.91,5,SSE,2.3,,,,Haze,160,2013-11-13 21:00:00
11:00 PM,68.0,50.0,52,29.92,5.0,SSE,2.3,-,N/A,,Unknown,160,2013-11-13 21:00:00